RYR95PT EDFH-LEPA

Flight info

Callsign RYR95PT
Flight time 2h 9m
Altitude 35000
Route ULKIG1E ULKIG DCT RIDSU Z114 ODAVU Y163 HERBI Y164 MOPAN/N0449F370 DCT LUTIX DCT BENOT DCT NEMOS DCT GEVEA DCT INCUS DCT BALSI DCT RETNO DCT TUPOX DCT MTG DCT DIVKO DCT VATIR N852 VERSO L129 LUNIK
Aircraft A320/M-SDE3FGHIRWY/LB1

Departure

Time 2026-05-08 16:29
Airport Frankfurt-Hahn Airport (EDFH)

Arrival

Time 2026-05-08 18:38
Airport Palma de Mallorca Airport (LEPA)
Time Latitude Longitude Altitude Speed Heading
2026-05-08 15:58 49.94770 7.26928 1617 ft 0 kts 212°
2026-05-08 16:19 49.94786 7.26944 1624 ft 3 kts 213°
2026-05-08 16:19 49.94806 7.26960 1619 ft 4 kts 183°
2026-05-08 16:19 49.94825 7.26948 1622 ft 4 kts 117°
2026-05-08 16:19 49.94836 7.26910 1624 ft 3 kts 121°
2026-05-08 16:20 49.94848 7.26885 1625 ft 4 kts 147°
2026-05-08 16:20 49.94871 7.26875 1622 ft 4 kts 194°
2026-05-08 16:20 49.94893 7.26891 1618 ft 4 kts 213°
2026-05-08 16:20 49.94898 7.26897 1622 ft 0 kts 213°
2026-05-08 16:22 49.94893 7.26892 1618 ft 3 kts 213°
2026-05-08 16:22 49.94856 7.26855 1623 ft 9 kts 212°
2026-05-08 16:23 49.94780 7.26783 1622 ft 17 kts 210°
2026-05-08 16:23 49.94668 7.26670 1620 ft 17 kts 212°
2026-05-08 16:23 49.94574 7.26640 1622 ft 13 kts 192°
2026-05-08 16:23 49.94489 7.26563 1619 ft 11 kts 213°
2026-05-08 16:24 49.94437 7.26509 1625 ft 12 kts 213°
2026-05-08 16:24 49.94385 7.26456 1623 ft 16 kts 213°
2026-05-08 16:24 49.94229 7.26298 1630 ft 23 kts 213°
2026-05-08 16:24 49.94087 7.26152 1631 ft 24 kts 213°
2026-05-08 16:25 49.93950 7.26012 1630 ft 19 kts 213°
2026-05-08 16:25 49.93856 7.25914 1633 ft 11 kts 214°
2026-05-08 16:25 49.93798 7.25825 1633 ft 17 kts 227°
2026-05-08 16:25 49.93705 7.25673 1634 ft 19 kts 259°
2026-05-08 16:26 49.93691 7.25545 1635 ft 12 kts 220°
2026-05-08 16:26 49.93609 7.25462 1636 ft 17 kts 213°
2026-05-08 16:26 49.93519 7.25373 1640 ft 13 kts 212°
2026-05-08 16:26 49.93444 7.25299 1641 ft 15 kts 212°
2026-05-08 16:27 49.93318 7.25169 1643 ft 28 kts 214°
2026-05-08 16:27 49.93167 7.25026 1643 ft 22 kts 211°
2026-05-08 16:27 49.93080 7.24891 1644 ft 15 kts 273°
2026-05-08 16:27 49.93128 7.24755 1643 ft 14 kts 304°
2026-05-08 16:28 49.93149 7.24724 1643 ft 11 kts 331°
2026-05-08 16:28 49.93237 7.24781 1643 ft 20 kts 32°
2026-05-08 16:28 49.93410 7.24955 1644 ft 69 kts 32°
2026-05-08 16:28 49.94106 7.25638 1630 ft 138 kts 32°
2026-05-08 16:29 49.95633 7.27192 2071 ft 178 kts 34°
2026-05-08 16:29 49.96540 7.28130 2628 ft 186 kts 35°
2026-05-08 16:29 49.96780 7.28371 2800 ft 186 kts 34°
2026-05-08 16:29 49.98896 7.30466 3804 ft 211 kts 32°
2026-05-08 16:30 49.99686 7.31228 3998 ft 226 kts 33°
2026-05-08 16:30 50.01474 7.32959 4519 ft 255 kts 32°
2026-05-08 16:30 50.02845 7.33842 5063 ft 265 kts
2026-05-08 16:30 50.04813 7.33318 5932 ft 271 kts 329°
2026-05-08 16:31 50.05190 7.32943 6134 ft 271 kts 321°
2026-05-08 16:31 50.06444 7.28297 7623 ft 272 kts 260°
2026-05-08 16:31 50.05865 7.26042 8292 ft 275 kts 232°
2026-05-08 16:31 50.04188 7.23950 9276 ft 278 kts 205°
2026-05-08 16:32 50.02840 7.23345 9909 ft 282 kts 188°
2026-05-08 16:32 50.00556 7.23812 10648 ft 299 kts 160°
2026-05-08 16:32 49.98146 7.25759 10930 ft 330 kts 149°
2026-05-08 16:33 49.94955 7.29893 11964 ft 348 kts 131°
2026-05-08 16:33 49.93563 7.33014 12713 ft 353 kts 120°
2026-05-08 16:33 49.92716 7.35772 13307 ft 357 kts 112°
2026-05-08 16:33 49.91788 7.40869 14268 ft 362 kts 105°
2026-05-08 16:34 49.91198 7.44560 14894 ft 365 kts 105°
2026-05-08 16:34 49.90622 7.48254 15520 ft 368 kts 105°
2026-05-08 16:34 49.90434 7.49475 15717 ft 369 kts 105°
2026-05-08 16:34 49.89446 7.55905 16757 ft 375 kts 105°
2026-05-08 16:35 49.88766 7.60350 17462 ft 378 kts 105°
2026-05-08 16:35 49.88409 7.62671 17825 ft 380 kts 105°
2026-05-08 16:35 49.87547 7.68242 18639 ft 385 kts 105°
2026-05-08 16:35 49.87149 7.70803 18966 ft 387 kts 105°
2026-05-08 16:36 49.86561 7.74594 19457 ft 391 kts 105°
2026-05-08 16:36 49.85805 7.79447 20063 ft 395 kts 105°
2026-05-08 16:36 49.85105 7.83923 20625 ft 399 kts 105°
2026-05-08 16:36 49.84494 7.87811 21105 ft 403 kts 105°
2026-05-08 16:37 49.83896 7.91626 21566 ft 406 kts 105°
2026-05-08 16:37 49.83259 7.95684 22044 ft 410 kts 105°
2026-05-08 16:37 49.82600 7.99873 22514 ft 413 kts 105°
2026-05-08 16:37 49.81912 8.04231 23004 ft 417 kts 105°
2026-05-08 16:38 49.81272 8.08274 23452 ft 421 kts 105°
2026-05-08 16:38 49.80522 8.13011 23900 ft 424 kts 105°
2026-05-08 16:38 49.79682 8.18291 24366 ft 427 kts 105°
2026-05-08 16:38 49.79137 8.21697 24660 ft 429 kts 105°
2026-05-08 16:39 49.78406 8.26241 25058 ft 432 kts 105°
2026-05-08 16:39 49.77698 8.30623 25444 ft 433 kts 105°
2026-05-08 16:39 49.76965 8.35158 25823 ft 435 kts 105°
2026-05-08 16:39 49.76219 8.39753 26209 ft 437 kts 105°
2026-05-08 16:40 49.75468 8.44251 26573 ft 438 kts 109°
2026-05-08 16:40 49.74372 8.48646 26936 ft 438 kts 118°
2026-05-08 16:40 49.72834 8.52729 27297 ft 437 kts 128°
2026-05-08 16:40 49.70703 8.56091 27642 ft 432 kts 147°
2026-05-08 16:41 49.68110 8.58234 27974 ft 429 kts 163°
2026-05-08 16:41 49.65152 8.59152 28307 ft 425 kts 180°
2026-05-08 16:41 49.62253 8.58739 28625 ft 423 kts 196°
2026-05-08 16:42 49.56990 8.54691 29253 ft 424 kts 210°
2026-05-08 16:42 49.54444 8.52784 29514 ft 426 kts 204°
2026-05-08 16:42 49.51812 8.51351 29790 ft 429 kts 197°
2026-05-08 16:42 49.48914 8.50377 30068 ft 432 kts 189°
2026-05-08 16:43 49.45920 8.49922 30306 ft 434 kts 186°
2026-05-08 16:43 49.42783 8.49516 30525 ft 436 kts 186°
2026-05-08 16:43 49.39858 8.49129 30729 ft 438 kts 187°
2026-05-08 16:43 49.36824 8.48724 30932 ft 439 kts 187°
2026-05-08 16:44 49.35891 8.48598 31010 ft 439 kts 187°
2026-05-08 16:44 49.30234 8.47844 31531 ft 439 kts 187°
2026-05-08 16:44 49.27506 8.47487 31782 ft 439 kts 187°
2026-05-08 16:44 49.25839 8.47270 31931 ft 439 kts 187°
2026-05-08 16:45 49.22437 8.46831 32233 ft 439 kts 187°
2026-05-08 16:45 49.18459 8.46316 32555 ft 440 kts 187°
2026-05-08 16:45 49.16056 8.46004 32754 ft 440 kts 187°
2026-05-08 16:45 49.13179 8.45631 32998 ft 440 kts 187°
2026-05-08 16:46 49.09810 8.45191 33289 ft 440 kts 187°
2026-05-08 16:46 49.07126 8.44827 33526 ft 440 kts 189°
2026-05-08 16:46 49.04074 8.43956 33795 ft 438 kts 195°
2026-05-08 16:46 49.01974 8.43220 33977 ft 438 kts 195°
2026-05-08 16:47 48.98330 8.41948 34245 ft 438 kts 196°
2026-05-08 16:47 48.95483 8.40954 34431 ft 439 kts 196°
2026-05-08 16:47 48.92460 8.39903 34639 ft 440 kts 196°
2026-05-08 16:47 48.89149 8.38755 34884 ft 440 kts 195°
2026-05-08 16:48 48.88494 8.38528 34927 ft 440 kts 195°
2026-05-08 16:48 48.83463 8.36785 35041 ft 439 kts 195°
2026-05-08 16:48 48.80495 8.35761 35040 ft 438 kts 195°
2026-05-08 16:49 48.74581 8.33691 35036 ft 438 kts 197°
2026-05-08 16:49 48.68660 8.31512 35036 ft 437 kts 197°
2026-05-08 16:50 48.62599 8.29274 35038 ft 437 kts 197°
2026-05-08 16:50 48.56852 8.27176 35040 ft 437 kts 197°
2026-05-08 16:51 48.50921 8.25028 35077 ft 439 kts 197°
2026-05-08 16:51 48.47927 8.23952 35265 ft 440 kts 197°
2026-05-08 16:51 48.44921 8.22863 35461 ft 440 kts 197°
2026-05-08 16:51 48.41881 8.21751 35680 ft 440 kts 197°
2026-05-08 16:52 48.39001 8.20692 35874 ft 440 kts 197°
2026-05-08 16:52 48.35954 8.19568 36051 ft 440 kts 197°
2026-05-08 16:52 48.32908 8.18453 36228 ft 441 kts 197°
2026-05-08 16:52 48.30045 8.17412 36416 ft 441 kts 197°
2026-05-08 16:53 48.25045 8.15484 36720 ft 439 kts 202°
2026-05-08 16:53 48.21262 8.12969 36969 ft 435 kts 209°
2026-05-08 16:53 48.18579 8.10973 37025 ft 436 kts 209°
2026-05-08 16:54 48.13136 8.06944 37028 ft 436 kts 209°
2026-05-08 16:54 48.07572 8.02838 37029 ft 436 kts 209°
2026-05-08 16:55 48.02224 7.98906 37022 ft 436 kts 209°
2026-05-08 16:55 47.96736 7.94875 37022 ft 436 kts 209°
2026-05-08 16:56 47.91365 7.90945 37031 ft 436 kts 209°
2026-05-08 16:56 47.85911 7.86961 37025 ft 436 kts 209°
2026-05-08 16:57 47.80848 7.83271 37026 ft 436 kts 209°
2026-05-08 16:57 47.75319 7.79370 37026 ft 436 kts 209°
2026-05-08 16:58 47.69799 7.75314 37016 ft 436 kts 210°
2026-05-08 16:58 47.64885 7.71697 37017 ft 435 kts 209°
2026-05-08 16:59 47.58942 7.67371 37020 ft 435 kts 209°
2026-05-08 16:59 47.53511 7.63464 37004 ft 435 kts 209°
2026-05-08 17:00 47.48044 7.59552 37011 ft 435 kts 209°
2026-05-08 17:00 47.42613 7.55666 37016 ft 435 kts 209°
2026-05-08 17:01 47.37110 7.51727 37020 ft 435 kts 209°
2026-05-08 17:01 47.31702 7.47871 37010 ft 435 kts 209°
2026-05-08 17:02 47.26224 7.43966 37005 ft 435 kts 210°
2026-05-08 17:02 47.20774 7.40091 37013 ft 435 kts 210°
2026-05-08 17:03 47.15783 7.35257 37011 ft 427 kts 227°
2026-05-08 17:03 47.12536 7.29735 37007 ft 423 kts 234°
2026-05-08 17:04 47.08922 7.23068 37014 ft 423 kts 234°
2026-05-08 17:04 47.05157 7.16168 37038 ft 423 kts 234°
2026-05-08 17:05 47.01551 7.09568 37018 ft 423 kts 234°
2026-05-08 17:05 46.97801 7.02700 37017 ft 423 kts 234°
2026-05-08 17:06 46.94098 6.95948 37010 ft 422 kts 235°
2026-05-08 17:06 46.90091 6.89325 37016 ft 427 kts 224°
2026-05-08 17:07 46.85686 6.84065 37016 ft 427 kts 223°
2026-05-08 17:07 46.81061 6.78580 37017 ft 427 kts 223°
2026-05-08 17:08 46.76462 6.73114 36973 ft 427 kts 223°
2026-05-08 17:08 46.71889 6.67683 36997 ft 426 kts 223°
2026-05-08 17:09 46.67396 6.62371 37004 ft 426 kts 223°
2026-05-08 17:09 46.62741 6.56892 37009 ft 426 kts 223°
2026-05-08 17:10 46.58168 6.51493 37009 ft 425 kts 223°
2026-05-08 17:10 46.53556 6.46054 37006 ft 425 kts 223°
2026-05-08 17:11 46.48749 6.40423 37013 ft 425 kts 223°
2026-05-08 17:11 46.45669 6.36823 37005 ft 425 kts 223°
2026-05-08 17:12 46.39648 6.29796 37005 ft 425 kts 223°
2026-05-08 17:12 46.35025 6.24410 37000 ft 425 kts 223°
2026-05-08 17:13 46.30435 6.19088 37018 ft 425 kts 223°
2026-05-08 17:13 46.25441 6.14216 37014 ft 433 kts 209°
2026-05-08 17:14 46.19647 6.11935 36999 ft 443 kts 194°
2026-05-08 17:14 46.13565 6.10598 37006 ft 442 kts 194°
2026-05-08 17:15 46.07165 6.09178 37006 ft 442 kts 194°
2026-05-08 17:15 46.01057 6.07819 37007 ft 442 kts 194°
2026-05-08 17:16 45.95209 6.06530 37001 ft 441 kts 194°
2026-05-08 17:16 45.89071 6.05175 37006 ft 441 kts 194°
2026-05-08 17:17 45.83095 6.03845 37007 ft 441 kts 194°
2026-05-08 17:17 45.76997 6.02497 37003 ft 440 kts 194°
2026-05-08 17:18 45.70837 6.01137 37012 ft 440 kts 194°
2026-05-08 17:18 45.64906 5.99840 36987 ft 439 kts 194°
2026-05-08 17:19 45.58848 5.98516 36986 ft 439 kts 194°
2026-05-08 17:19 45.52821 5.97190 36993 ft 438 kts 194°
2026-05-08 17:20 45.46823 5.95855 36998 ft 437 kts 195°
2026-05-08 17:20 45.40789 5.94098 36987 ft 434 kts 198°
2026-05-08 17:21 45.35983 5.92495 37010 ft 433 kts 198°
2026-05-08 17:21 45.29149 5.90254 37031 ft 432 kts 198°
2026-05-08 17:22 45.23284 5.88428 37034 ft 432 kts 197°
2026-05-08 17:22 45.17421 5.86623 37044 ft 431 kts 197°
2026-05-08 17:23 45.11560 5.84815 37054 ft 430 kts 197°
2026-05-08 17:23 45.05873 5.83052 37055 ft 429 kts 197°
2026-05-08 17:24 45.00094 5.81263 37047 ft 429 kts 197°
2026-05-08 17:24 44.95301 5.79792 37053 ft 428 kts 197°
2026-05-08 17:25 44.89398 5.77986 37057 ft 428 kts 197°
2026-05-08 17:25 44.83592 5.76210 37049 ft 427 kts 197°
2026-05-08 17:26 44.77781 5.74432 37050 ft 427 kts 197°
2026-05-08 17:26 44.71968 5.72657 37054 ft 427 kts 197°
2026-05-08 17:27 44.66170 5.70889 37057 ft 427 kts 196°
2026-05-08 17:27 44.60357 5.69118 37047 ft 427 kts 196°
2026-05-08 17:28 44.54549 5.67353 37055 ft 426 kts 196°
2026-05-08 17:28 44.48747 5.65596 37051 ft 426 kts 196°
2026-05-08 17:29 44.42959 5.63843 37038 ft 426 kts 196°
2026-05-08 17:29 44.37212 5.61904 37041 ft 422 kts 203°
2026-05-08 17:30 44.31756 5.58931 37043 ft 421 kts 205°
2026-05-08 17:30 44.26307 5.55943 37037 ft 420 kts 204°
2026-05-08 17:31 44.20864 5.52970 37039 ft 420 kts 205°
2026-05-08 17:31 44.15415 5.50003 37037 ft 420 kts 204°
2026-05-08 17:32 44.09968 5.47039 37040 ft 420 kts 204°
2026-05-08 17:32 44.04486 5.44047 37033 ft 420 kts 204°
2026-05-08 17:33 43.99064 5.41106 37039 ft 420 kts 204°
2026-05-08 17:33 43.93594 5.38148 37041 ft 420 kts 204°
2026-05-08 17:34 43.88162 5.35210 37025 ft 420 kts 204°
2026-05-08 17:34 43.82718 5.32265 37035 ft 419 kts 204°
2026-05-08 17:35 43.77286 5.29334 37035 ft 419 kts 203°
2026-05-08 17:35 43.71943 5.26468 37033 ft 419 kts 203°
2026-05-08 17:36 43.66645 5.23637 37018 ft 419 kts 203°
2026-05-08 17:36 43.61212 5.20725 37024 ft 419 kts 203°
2026-05-08 17:37 43.55776 5.17814 37050 ft 419 kts 203°
2026-05-08 17:37 43.50338 5.14907 37049 ft 419 kts 203°
2026-05-08 17:38 43.44878 5.12001 37052 ft 419 kts 203°
2026-05-08 17:38 43.39467 5.09069 37051 ft 418 kts 207°
2026-05-08 17:39 43.34574 5.04841 37048 ft 416 kts 216°
2026-05-08 17:39 43.29796 5.00342 37034 ft 416 kts 216°
2026-05-08 17:40 43.25016 4.95859 37034 ft 416 kts 216°
2026-05-08 17:40 43.20244 4.91381 37045 ft 415 kts 215°
2026-05-08 17:41 43.15484 4.86907 37041 ft 415 kts 215°
2026-05-08 17:41 43.10718 4.82457 37032 ft 414 kts 215°
2026-05-08 17:42 43.05957 4.78029 37039 ft 414 kts 213°
2026-05-08 17:42 43.00945 4.74144 37039 ft 414 kts 210°
2026-05-08 17:43 42.95915 4.70330 37033 ft 414 kts 210°
2026-05-08 17:43 42.90884 4.66532 37023 ft 413 kts 210°
2026-05-08 17:44 42.85768 4.62668 37025 ft 413 kts 210°
2026-05-08 17:44 42.80807 4.58923 37027 ft 413 kts 210°
2026-05-08 17:45 42.75753 4.55112 37045 ft 413 kts 210°
2026-05-08 17:45 42.70724 4.51329 37042 ft 413 kts 210°
2026-05-08 17:46 42.65691 4.47561 37038 ft 413 kts 210°
2026-05-08 17:46 42.60666 4.43800 37037 ft 413 kts 210°
2026-05-08 17:47 42.55632 4.40036 37037 ft 413 kts 210°
2026-05-08 17:47 42.51446 4.36911 37027 ft 413 kts 210°
2026-05-08 17:48 42.45570 4.32534 37036 ft 412 kts 210°
2026-05-08 17:48 42.40541 4.28806 37039 ft 412 kts 210°
2026-05-08 17:49 42.35503 4.25076 37043 ft 412 kts 210°
2026-05-08 17:49 42.30478 4.21345 37029 ft 412 kts 210°
2026-05-08 17:50 42.25447 4.17621 37047 ft 412 kts 210°
2026-05-08 17:50 42.20388 4.13891 37048 ft 412 kts 210°
2026-05-08 17:51 42.15342 4.10179 37049 ft 412 kts 210°
2026-05-08 17:51 42.10369 4.06513 37034 ft 411 kts 211°
2026-05-08 17:52 42.05416 4.02870 37039 ft 411 kts 211°
2026-05-08 17:53 41.97852 3.97347 37041 ft 411 kts 211°
2026-05-08 17:53 41.92763 3.93860 37039 ft 413 kts 203°
2026-05-08 17:54 41.87243 3.92162 37032 ft 417 kts 194°
2026-05-08 17:54 41.81492 3.90836 37035 ft 416 kts 194°
2026-05-08 17:55 41.75749 3.89521 37034 ft 416 kts 194°
2026-05-08 17:55 41.70081 3.88216 37023 ft 415 kts 195°
2026-05-08 17:56 41.64356 3.86899 37025 ft 415 kts 194°
2026-05-08 17:56 41.58659 3.85593 37028 ft 415 kts 195°
2026-05-08 17:57 41.52968 3.84289 37028 ft 415 kts 195°
2026-05-08 17:57 41.47285 3.82990 37016 ft 415 kts 195°
2026-05-08 17:58 41.41643 3.81703 37024 ft 414 kts 195°
2026-05-08 17:58 41.36878 3.80614 37035 ft 414 kts 195°
2026-05-08 17:59 41.31204 3.79317 37041 ft 414 kts 195°
2026-05-08 17:59 41.25530 3.78026 37028 ft 413 kts 196°
2026-05-08 18:00 41.19888 3.76743 37036 ft 413 kts 197°
2026-05-08 18:00 41.11676 3.73830 37039 ft 404 kts 206°
2026-05-08 18:01 41.06446 3.71123 37012 ft 404 kts 207°
2026-05-08 18:01 41.01202 3.68424 37027 ft 404 kts 207°
2026-05-08 18:02 40.95970 3.65738 37032 ft 403 kts 207°
2026-05-08 18:02 40.90702 3.63042 37031 ft 403 kts 207°
2026-05-08 18:03 40.85524 3.60387 37032 ft 403 kts 207°
2026-05-08 18:03 40.80293 3.57708 37028 ft 403 kts 207°
2026-05-08 18:04 40.75074 3.55035 37034 ft 402 kts 207°
2026-05-08 18:04 40.69844 3.52375 37037 ft 402 kts 207°
2026-05-08 18:05 40.64624 3.49723 37036 ft 402 kts 207°
2026-05-08 18:05 40.59403 3.47070 36844 ft 403 kts 207°
2026-05-08 18:06 40.56789 3.45745 36582 ft 402 kts 207°
2026-05-08 18:06 40.54178 3.44423 35944 ft 401 kts 207°
2026-05-08 18:06 40.51579 3.43107 35229 ft 402 kts 208°
2026-05-08 18:06 40.48966 3.41781 34460 ft 404 kts 208°
2026-05-08 18:07 40.46289 3.40448 33616 ft 408 kts 204°
2026-05-08 18:07 40.43500 3.39599 32854 ft 417 kts 194°
2026-05-08 18:07 40.40586 3.39432 32260 ft 422 kts 186°
2026-05-08 18:07 40.37646 3.39612 31619 ft 421 kts 186°
2026-05-08 18:08 40.34731 3.39785 30979 ft 419 kts 185°
2026-05-08 18:08 40.31829 3.39949 30338 ft 418 kts 185°
2026-05-08 18:08 40.28931 3.40110 29641 ft 417 kts 185°
2026-05-08 18:08 40.26035 3.40269 28861 ft 416 kts 185°
2026-05-08 18:09 40.23138 3.40429 28096 ft 416 kts 185°
2026-05-08 18:09 40.20256 3.40590 27321 ft 415 kts 185°
2026-05-08 18:09 40.17372 3.40757 26637 ft 414 kts 185°
2026-05-08 18:09 40.14529 3.40929 25946 ft 402 kts 185°
2026-05-08 18:10 40.11734 3.41094 25297 ft 401 kts 185°
2026-05-08 18:10 40.08953 3.41251 24653 ft 401 kts 185°
2026-05-08 18:10 40.06162 3.41405 24028 ft 400 kts 184°
2026-05-08 18:10 40.03389 3.41557 23370 ft 399 kts 184°
2026-05-08 18:11 40.00613 3.41707 22641 ft 399 kts 184°
2026-05-08 18:11 39.97845 3.41855 21914 ft 399 kts 184°
2026-05-08 18:11 39.95035 3.42007 21212 ft 399 kts 184°
2026-05-08 18:11 39.92270 3.42161 20536 ft 399 kts 184°
2026-05-08 18:12 39.89499 3.42316 19871 ft 399 kts 184°
2026-05-08 18:12 39.86758 3.42473 19235 ft 398 kts 183°
2026-05-08 18:12 39.83963 3.42636 18594 ft 398 kts 183°
2026-05-08 18:12 39.81195 3.42798 17917 ft 398 kts 183°
2026-05-08 18:13 39.78427 3.42958 17258 ft 397 kts 183°
2026-05-08 18:13 39.75705 3.43114 17010 ft 385 kts 183°
2026-05-08 18:13 39.73104 3.43013 16750 ft 365 kts 195°
2026-05-08 18:13 39.70766 3.41999 16522 ft 344 kts 212°
2026-05-08 18:14 39.68871 3.40244 16272 ft 328 kts 227°
2026-05-08 18:14 39.67492 3.37958 16012 ft 317 kts 242°
2026-05-08 18:14 39.66525 3.35424 15769 ft 310 kts 245°
2026-05-08 18:14 39.65599 3.32932 15425 ft 305 kts 245°
2026-05-08 18:15 39.64681 3.30470 15173 ft 299 kts 245°
2026-05-08 18:15 39.63791 3.28089 15035 ft 289 kts 245°
2026-05-08 18:15 39.62925 3.25763 14857 ft 282 kts 245°
2026-05-08 18:15 39.62075 3.23482 14777 ft 281 kts 245°
2026-05-08 18:16 39.61212 3.21210 14516 ft 281 kts 244°
2026-05-08 18:16 39.60337 3.18943 14106 ft 282 kts 244°
2026-05-08 18:16 39.59455 3.16672 13668 ft 279 kts 244°
2026-05-08 18:16 39.58583 3.14433 12929 ft 278 kts 244°
2026-05-08 18:17 39.57697 3.12160 12200 ft 277 kts 244°
2026-05-08 18:17 39.56844 3.09973 11509 ft 276 kts 244°
2026-05-08 18:17 39.55978 3.07756 10827 ft 275 kts 244°
2026-05-08 18:17 39.55122 3.05559 10255 ft 271 kts 244°
2026-05-08 18:18 39.54265 3.03350 9700 ft 271 kts 244°
2026-05-08 18:18 39.53413 3.01151 9096 ft 276 kts 244°
2026-05-08 18:18 39.52553 2.98936 8568 ft 279 kts 243°
2026-05-08 18:18 39.51669 2.96665 8086 ft 280 kts 243°
2026-05-08 18:19 39.50799 2.94437 7624 ft 280 kts 243°
2026-05-08 18:19 39.49909 2.92158 7154 ft 280 kts 243°
2026-05-08 18:19 39.49032 2.89914 6682 ft 281 kts 243°
2026-05-08 18:19 39.48149 2.87657 6215 ft 280 kts 242°
2026-05-08 18:20 39.47268 2.85409 5735 ft 280 kts 242°
2026-05-08 18:20 39.46401 2.83201 5251 ft 271 kts 242°
2026-05-08 18:20 39.45552 2.81036 4885 ft 270 kts 242°
2026-05-08 18:20 39.44707 2.78883 4503 ft 267 kts 242°
2026-05-08 18:21 39.44023 2.76686 4111 ft 259 kts 256°
2026-05-08 18:21 39.43835 2.74424 3741 ft 250 kts 272°
2026-05-08 18:21 39.44090 2.72209 3367 ft 251 kts 282°
2026-05-08 18:21 39.44438 2.70046 3058 ft 238 kts 282°
2026-05-08 18:22 39.44993 2.68039 3039 ft 237 kts 301°
2026-05-08 18:22 39.46034 2.66413 3021 ft 237 kts 321°
2026-05-08 18:22 39.47426 2.65310 2703 ft 232 kts 341°
2026-05-08 18:22 39.48976 2.64886 2382 ft 227 kts
2026-05-08 18:23 39.50546 2.65147 2020 ft 224 kts 20°
2026-05-08 18:23 39.51885 2.65992 1545 ft 210 kts 39°
2026-05-08 18:23 39.52907 2.67293 1059 ft 196 kts 58°
2026-05-08 18:23 39.53604 2.68728 638 ft 188 kts 59°
2026-05-08 18:24 39.54270 2.70136 474 ft 180 kts 59°
2026-05-08 18:24 39.54977 2.71614 1000 ft 202 kts 60°
2026-05-08 18:24 39.55751 2.73244 1552 ft 225 kts 61°
2026-05-08 18:24 39.56629 2.75157 1867 ft 270 kts 61°
2026-05-08 18:25 39.57603 2.77337 2141 ft 268 kts 61°
2026-05-08 18:25 39.58485 2.79296 2405 ft 235 kts 61°
2026-05-08 18:25 39.59271 2.81019 2673 ft 210 kts 60°
2026-05-08 18:25 39.60006 2.82643 2930 ft 209 kts 62°
2026-05-08 18:26 39.60750 2.84304 3485 ft 210 kts 61°
2026-05-08 18:26 39.61484 2.85956 4098 ft 217 kts 61°
2026-05-08 18:26 39.62236 2.87666 4267 ft 218 kts 61°
2026-05-08 18:26 39.62912 2.89451 4317 ft 217 kts 78°
2026-05-08 18:27 39.62851 2.91364 4342 ft 214 kts 113°
2026-05-08 18:27 39.62644 2.91921 4339 ft 213 kts 124°
2026-05-08 18:27 39.61062 2.93343 4343 ft 214 kts 171°
2026-05-08 18:27 39.59569 2.93267 4342 ft 216 kts 189°
2026-05-08 18:28 39.58097 2.92877 4342 ft 216 kts 192°
2026-05-08 18:28 39.56627 2.92438 4341 ft 217 kts 192°
2026-05-08 18:28 39.55159 2.91999 4338 ft 217 kts 192°
2026-05-08 18:28 39.53685 2.91558 4337 ft 217 kts 192°
2026-05-08 18:29 39.52198 2.91096 4338 ft 217 kts 192°
2026-05-08 18:29 39.50716 2.90646 4346 ft 230 kts 192°
2026-05-08 18:29 39.49227 2.89914 4319 ft 229 kts 216°
2026-05-08 18:29 39.48205 2.88355 4244 ft 229 kts 238°
2026-05-08 18:30 39.47444 2.86544 3909 ft 230 kts 241°
2026-05-08 18:30 39.46723 2.84688 3556 ft 231 kts 242°
2026-05-08 18:30 39.46005 2.82820 3200 ft 233 kts 243°
2026-05-08 18:30 39.45278 2.80958 3034 ft 229 kts 242°
2026-05-08 18:31 39.44561 2.79111 3036 ft 229 kts 242°
2026-05-08 18:31 39.43847 2.77281 3034 ft 227 kts 242°
2026-05-08 18:31 39.43139 2.75454 3036 ft 228 kts 242°
2026-05-08 18:31 39.42428 2.73603 3032 ft 229 kts 242°
2026-05-08 18:32 39.41736 2.71748 3028 ft 232 kts 248°
2026-05-08 18:32 39.41373 2.69725 2892 ft 229 kts 261°
2026-05-08 18:32 39.41156 2.67720 2735 ft 222 kts 262°
2026-05-08 18:32 39.40954 2.65761 2491 ft 218 kts 262°
2026-05-08 18:33 39.40760 2.63824 2215 ft 217 kts 262°
2026-05-08 18:33 39.40579 2.61893 2122 ft 216 kts 262°
2026-05-08 18:33 39.40398 2.59961 2132 ft 217 kts 262°
2026-05-08 18:33 39.40230 2.58021 2125 ft 217 kts 268°
2026-05-08 18:34 39.40587 2.56167 2124 ft 216 kts 304°
2026-05-08 18:34 39.41698 2.54915 2127 ft 212 kts 341°
2026-05-08 18:34 39.43132 2.54680 2137 ft 208 kts
2026-05-08 18:34 39.44561 2.54900 2131 ft 207 kts 11°
2026-05-08 18:35 39.45988 2.55212 2126 ft 206 kts 19°
2026-05-08 18:35 39.47272 2.56014 2131 ft 203 kts 40°
2026-05-08 18:35 39.48203 2.57347 2132 ft 199 kts 60°
2026-05-08 18:35 39.48928 2.58873 2098 ft 198 kts 60°
2026-05-08 18:36 39.49644 2.60384 1894 ft 196 kts 61°
2026-05-08 18:36 39.50351 2.61872 1678 ft 192 kts 60°
2026-05-08 18:36 39.51051 2.63347 1442 ft 189 kts 60°
2026-05-08 18:36 39.51727 2.64769 1172 ft 182 kts 60°
2026-05-08 18:37 39.52378 2.66141 925 ft 175 kts 60°
2026-05-08 18:37 39.52988 2.67427 724 ft 160 kts 59°
2026-05-08 18:37 39.53541 2.68593 509 ft 145 kts 59°
2026-05-08 18:37 39.54066 2.69681 301 ft 141 kts 61°
2026-05-08 18:38 39.54573 2.70748 108 ft 138 kts 60°
2026-05-08 18:38 39.55057 2.71783 35 ft 125 kts 60°
2026-05-08 18:38 39.55449 2.72615 30 ft 86 kts 58°
2026-05-08 18:38 39.55670 2.73087 30 ft 37 kts 59°
2026-05-08 18:39 39.55722 2.73319 30 ft 17 kts 89°
2026-05-08 18:39 39.55708 2.73408 30 ft 0 kts 141°
2026-05-08 18:39 39.55703 2.73416 30 ft 6 kts 130°
2026-05-08 18:39 39.55681 2.73451 30 ft 0 kts 132°
2026-05-08 18:40 39.55671 2.73461 30 ft 0 kts 141°
2026-05-08 18:40 39.55668 2.73464 30 ft 0 kts 142°
2026-05-08 18:40 39.55628 2.73499 30 ft 15 kts 149°
2026-05-08 18:41 39.55523 2.73564 30 ft 11 kts 177°
2026-05-08 18:41 39.55466 2.73496 30 ft 11 kts 239°
2026-05-08 18:41 39.55420 2.73460 30 ft 7 kts 181°
2026-05-08 18:41 39.55380 2.73480 30 ft 6 kts 153°
2026-05-08 18:42 39.55349 2.73503 30 ft 5 kts 149°
2026-05-08 18:42 39.55321 2.73525 30 ft 5 kts 149°
2026-05-08 18:42 39.55297 2.73544 30 ft 4 kts 149°
2026-05-08 18:42 39.55275 2.73561 30 ft 5 kts 149°
2026-05-08 18:43 39.55215 2.73605 30 ft 14 kts 151°
2026-05-08 18:43 39.55161 2.73625 30 ft 9 kts 210°
2026-05-08 18:43 39.55115 2.73554 30 ft 10 kts 237°
2026-05-08 18:43 39.55080 2.73479 30 ft 9 kts 239°
2026-05-08 18:44 39.55050 2.73415 30 ft 8 kts 239°
2026-05-08 18:44 39.55012 2.73386 30 ft 4 kts 177°
2026-05-08 18:44 39.54996 2.73390 30 ft 0 kts 166°
2026-05-08 18:44 39.54992 2.73391 30 ft 0 kts 166°
2026-05-08 18:45 39.54985 2.73394 30 ft 0 kts 165°